DELTA 1 R/B, 50

Orbit data source: Space-Track

DELTA 1 R/B, 50 is space debris in LEO originally from a launch on Fri, 12 Aug 1960 UTC launched from the Air Force Eastern Test Range (AFETR). Debris objects in space refer to the collection of defunct objects orbiting the Earth. Examples of debris include non-operational satellites, rocket bodies, and fragments generated from explosions, collisions, or faulty payload assembly.

Loading next visibility...
Identifier
50, 1960-009B
Orbit
LEO
Country
Flag of USUS
Related business
Manufacturer
ABL
Mission
Spacecraft
Bus & Motor
ALTAIR, Unknown motor
Mass
24 kg wet, 24 kg dry
Launch date (UTC)
1960-08-12 (65 years ago)
Launch vehicle
Unknown
Launch site
Air Force Eastern Test Range (AFETR)
Object type
Payload
Rocket body
Debris
Shape & HBR
Cyl, 0.8 m
Radar Cross Section
0.687 m², Medium (>0.1 m² and < 1m²)

Expand to show TLE details & history
Last TLE update: 1 day ago

TLE from 1 day ago
0 DELTA 1 R/B
1 00050U 60009B   25259.40819093 -.00000022  00000-0  59315-3 0  9998
2 00050  47.2314 291.5244 0114249 278.7328  80.0536 12.20158748904275
Epoch: 2025-09-16T09:47Z
TLE epoch observation values (Epoch: 2025-09-16T09:47:47.696Z)
Latitude
-0°
Longitude
148.97674°
Altitude
1,577.349 km
Speed
7.087 km/s
True Right ascension
19h 26m 05s
True Declination
0° 00' 00"
Sunlit
Object was in daylight at epoch
Visualization orbit readout
Latitude
Unknown
Longitude
Unknown
Altitude
Unknown
Speed
Unknown
Apparent Right ascension
Unknown
Apparent Declination
Unknown
Sunlit
N/A
Visualization observer readout
Local Sidereal Time
14:33:50
Azimuth
Unknown
Elevation
Unknown
Doppler factor
Unknown
Orbital elements
Apogee altitude
1,683.983 km
Perigee altitude
1,501.846 km
Semi-major axis
7,971.051 km
Eccentricity
0.01142
Inclination
47.2314°
RAAN
291.5244°
Arg. of periapsis
278.7328°
True anomaly
81.3462°
Mean anomaly
80.0536°
Eccentric anomaly
80.69959°
Mean motion
3.04979 °/min
Orbital period
118.04 mins
BSTAR
0.00059315
Loading maneuver chart data...
Computing Atmospheric mass density...
Loading historical data...
Loading historical data...
Loading historical data...
Loading historical data...
Loading historical data...
Loading historical data...
Loading historical data...

Documentation

Showing up to 5 results
|